Location: Newark
(18.8808°N, 99.0693°W)
Time: 23:20:40
(UTC+00:00)

N. Korean satellite - Pass Details

Date: 01 September 2019
Orbit: 455 x 509 km, 97.2° (Epoch: 21 September)

Event Time Altitude Azimuth Distance (km) Brightness Sun altitude
Rises 11:34:50 0° 37° (NE) 2,487 11.0 -11.6°
Reaches altitude 10° 11:37:36 10° 61° (ENE) 1,602 10.6 -11.0°
Maximum altitude 11:39:36 15° 97° (E) 1,331 9.9 -10.5°
Drops below altitude 10° 11:41:35 10° 133° (SE) 1,589 9.7 -10.1°
Sets 11:44:18 0° 158° (SSE) 2,456 10.3 -9.5°
